Tracking 28514 objects as of 24-Feb-2024
HD Live streaming from Space Station
objects crossing your sky now

OPS 6679 (VELA 8)

Track OPS 6679 (VELA 8) now!
OPS 6679 (VELA 8) is classified as:


NORAD ID: 2766
Int'l Code: 1967-040B
Perigee: 57,632.3 km
Apogee: 166,406.9 km
Inclination: 32.0 °
Period: 6,756.7 minutes
Semi major axis: 118390 km
RCS: Unknown
Launch date: April 28, 1967
Source: United States (US)
Launch site: AIR FORCE EASTERN TEST RANGE (AFETR)
Your satellite tracking list
Your tracking list is empty




NASA's NSSDC Master Catalog

Two Line Element Set (TLE):
1  2766U 67040B   24046.78033850 -.00001235  00000-0  00000+0 0  9999
2  2766  32.0150  21.8042 4593888  83.7338   1.0686  0.21312155 44412
Source of the keplerian elements: AFSPC